Weather in Red'kino

Russia / Moscow Oblast     54°50′09″N   38°29′58″E
temp.,
°C
wind,
m/s
gust,
m/s
humid.,
%
clouds,
%
prec.,
mm/h
press.,
hPa
HPBL,
m
31 july, sat
sat3100:00+17w36960 0.0 1005126
03:00+17wsw49882 0.0 1005180
06:00+17w5118733 0.0 1006259
09:00+22w611613 0.0 10061087
12:00+25wsw813490 0.0 10062058
15:00+26wsw8104729 0.0 10061937
18:00+25wsw695386 0.0 1007877
21:00+19wsw336232 0.0 100937
1 august, sun
sun100:00+17wsw3766100 0.0 1010106
03:00+16wsw467053 0.0 101189
06:00+16sw357473 0.0 1012110
09:00+23sw465492 0.0 1012447
12:00+28sw564298 0.0 10111308
15:00+31sw6103554 0.0 10102910
18:00+28sw594676 0.0 1009487
21:00+18nne229397 0.1 101123
2 august, mon
mon200:00+18s339223 0.2 101142
03:00+18sse22915 0.2 101120
06:00+19se358487 0.1 1010103
09:00+25s585222 0.1 1009466
12:00+26ssw695552 0.2 1008451
15:00+31ssw7133883 0.2 10052795
18:00+29wsw5104646 0.0 1004392
21:00+23se2268100 0.0 100321
3 august, tue
tue300:00+19nw4893100 1.2 1004230
03:00+18ssw2495100 2.9 1003123
06:00+18sw4129311 0.0 1004484
09:00+19sw5786100 0.1 1005786
12:00+19sw6882100 0.1 1006715
15:00+16wnw6109079 0.4 1008570
18:00+20wnw576545 0.0 10091200
21:00+16wsw36896 0.1 1011104
4 august, wed
wed400:00+15wsw4987100 0.0 1011173
03:00+13wsw489110 0.0 1012122
06:00+15w388196 0.0 1013240
09:00+19w57640 0.0 1014792
12:00+22w56496 0.0 10151837
15:00+21wnw3551100 0.0 1015437
18:00+22wnw354548 0.0 1015451
21:00+16nnw22562 0.0 101717